Location: Newark
(45.2500°N, 7.5833°E)
Time: 00:33:12
(UTC+00:00)

A-11 Canister half - Pass Details

Date: 01 February 2020
Orbit: 1524 x 1684 km, 47.3° (Epoch: 24 February)

Event Time Altitude Azimuth Distance (km) Brightness Sun altitude
Rises 22:00:57 0° 293° (WNW) 4,737 12.1 -54.6°
Reaches altitude 10° 22:04:18 10° 285° (WNW) 3,771 11.4 -55.0°
Enters shadow 22:06:37 18° 276° (W) 3,174 10.8 -55.3°
Maximum altitude 22:12:40 36° 224° (SW) 2,357 - -56.0°
Drops below altitude 10° 22:21:16 10° 163° (SSE) 3,870 - -57.0°
Sets 22:24:46 0° 155° (SSE) 4,875 - -57.4°
